Location: Star Dogged Moon Observatory
(29.7756°N, 82.0783°W)
Time: 19:32:20
(UTC-04:00)

ARGOS - Visible Passes

Search period start: 01 September 2014 00:00
Search period end: 11 September 2014 00:00
Orbit: 821 x 835 km, 98.8° (Epoch: 31 August)

Date Brightness Start Highest point End Pass type
(mag) Time Alt. Az. Time Alt. Az. Time Alt. Az.
01 Sep 5.7 23:29:07 16° NNW 23:29:07 16° NNW 23:30:11 10° NNW visible
02 Sep 5.5 23:10:35 18° N 23:10:35 18° N 23:11:50 10° N visible
03 Sep 5.4 22:52:03 17° N 22:52:03 17° N 22:53:18 10° N visible
04 Sep 5.4 22:33:31 16° NNE 22:33:31 16° NNE 22:34:36 10° N visible
05 Sep 5.5 22:14:59 13° NNE 22:14:59 13° NNE 22:15:39 10° NNE visible
06 Sep 6.0 23:37:59 12° NNW 23:37:59 12° NNW 23:38:16 10° NNW visible
07 Sep 5.8 23:19:28 13° NNW 23:19:28 13° NNW 23:20:00 10° NNW visible
08 Sep 5.7 23:00:56 13° N 23:00:56 13° N 23:01:34 10° N visible
09 Sep 5.7 22:42:25 13° N 22:42:25 13° N 22:42:56 10° N visible
10 Sep 5.7 22:23:53 11° NNE 22:23:53 11° NNE 22:24:06 10° NNE visible
